Weather History for KSWF - May, 2013

Change the Weather History Date:

Friday, May 24, 2013

  Actual Average Record
Temperature  
Mean Temperature 53 °F -  
Max Temperature 62 °F 68 °F 90 °F (1980)
Min Temperature 44 °F 48 °F 36 °F (1976)
Degree Days  
Heating Degree Days 12    
Growing Degree Days 3 (Base 50)    
Moisture  
Dew Point 53 °F    
Average Humidity 95    
Maximum Humidity 100    
Minimum Humidity 87    
Precipitation  
Precipitation 0.00 in - - ()
Sea Level Pressure  
Sea Level Pressure 29.82 in    
Wind  
Wind Speed 9 mph (WNW)    
Max Wind Speed 21 mph    
Max Gust Speed 24 mph    
Visibility 5 miles    
Events Rain    
Averages and records for this station are not official NWS values.
T = Trace of Precipitation, MM = Missing Value Source: NWS Daily Summary

Daily Weather History Graph

Daily Weather History Graph

Search for Another Location

Airport or City:

Trip Planner

Search our weather history database for the weather conditions in past years. The results will help you decide how hot, cold, wet, or windy it might be!

Date:

Astronomy

May. 24, 2013 Rise Set
Actual Time 5:29 AM EDT 8:17 PM EDT
Civil Twilight 4:56 AM EDT 8:50 PM EDT
Nautical Twilight 4:16 AM EDT 9:31 PM EDT
Astronomical Twilight 3:29 AM EDT 10:18 PM EDT
Moon 7:56 PM EDT (5/24) 5:00 AM EDT (5/24)
Length of Visible Light 15h 53m
Length of Day
14h 48m
Full, 100% of the Moon is Illuminated
May 24
Full
May 25
Full
May 31
Last Quarter
Jun 8
New
Jun 16
First Quarter

Hourly Weather History & Observations

Time (EDT) Temp. Windchill Dew Point Humidity Pressure Visibility Wind Dir Wind Speed Gust Speed Precip Events Conditions
12:45 AM 62.6 °F - 60.8 °F 94% 29.77 in 4.0 mi WNW 13.8 mph - N/A Rain Light Rain
1:45 AM 62.6 °F - 60.8 °F 94% 29.74 in 4.0 mi Calm Calm - N/A Rain Light Rain
2:45 AM 60.8 °F - 60.8 °F 100% 29.72 in 5.0 mi South 5.8 mph - N/A Rain Light Rain
3:45 AM 60.8 °F - 60.8 °F 100% 29.70 in 6.0 mi Calm Calm - N/A   Overcast
4:45 AM 60.8 °F - 60.8 °F 100% 29.71 in 6.0 mi West 9.2 mph - N/A   Overcast
6:45 AM 60.8 °F - 60.8 °F 100% 29.73 in 6.0 mi West 6.9 mph - N/A   Mostly Cloudy
7:45 AM 60.8 °F - 60.8 °F 100% 29.74 in 6.0 mi West 6.9 mph - N/A   Mostly Cloudy
8:45 AM 59.0 °F - 57.2 °F 94% 29.77 in 5.0 mi WNW 19.6 mph - N/A   Mostly Cloudy
10:45 AM 53.6 °F - 50.0 °F 88% 29.82 in 2.5 mi West 20.7 mph 24.2 mph N/A Rain Light Rain
11:45 AM 51.8 °F - 50.0 °F 94% 29.84 in 2.5 mi WNW 11.5 mph - N/A Rain Light Rain
12:45 PM 50.0 °F - 50.0 °F 100% 29.85 in 2.5 mi WNW 11.5 mph - N/A Rain Light Rain
1:45 PM 50.0 °F - 48.2 °F 94% 29.87 in 2.5 mi WNW 11.5 mph - N/A Rain Light Rain
2:45 PM 50.0 °F - 50.0 °F 100% 29.87 in 2.5 mi NW 8.1 mph - N/A Rain Light Rain
3:45 PM 51.8 °F - 50.0 °F 94% 29.88 in 2.0 mi NW 9.2 mph - N/A Rain Light Rain
4:45 PM 50.0 °F - 48.2 °F 94% 29.88 in 4.0 mi NW 9.2 mph 17.3 mph N/A Rain Light Rain
6:45 PM 48.2 °F - 46.4 °F 93% 29.92 in 5.0 mi NNW 8.1 mph - N/A Rain Light Rain
8:45 PM 44.6 °F 40.2 °F 44.6 °F 100% 29.95 in 10.0 mi WNW 8.1 mph - N/A Rain Light Rain
10:45 PM 44.6 °F 39.7 °F 41.0 °F 87% 29.97 in 10.0 mi NNW 9.2 mph - N/A   Overcast
11:45 PM 44.6 °F 39.7 °F 41.0 °F 87% 29.94 in 10.0 mi NW 9.2 mph - N/A   Overcast